Terminal Aerodrome Forecast
Issued by NWS Wilmington, OH

Home | Current Version | Previous Version | Text Only | Print | Product List | Glossary On
Versions: 1 2 3 4 5 6 7 8 9 10 11 12 13 14 15 16 17 18 19 20 21 22 23 24 25 26 27 28
000
FTUS41 KILN 231300 AAA
TAFCMH
TAF AMD
KCMH 231307Z 2313/2412 08003KT P6SM SCT012
      TEMPO 2313/2314 5SM BR
     FM231800 05006KT P6SM SCT040
     FM240100 06004KT P6SM BKN040
     FM240800 00000KT 3SM BR SCT040=

USA.gov is the U.S. government's official web portal to all federal, state and local government web resources and services.